Hourly Weather Roundup
Issued by NWS Central Illinois

Home | Current Version | Previous Version | Text Only | Print | Product List | Glossary On
Versions: 1 2 3 4 5 6 7 8 9 10 11 12 13 14 15 16 17 18 19 20 21 22 23 24 25 26 27 28 29 30 31 32 33 34 35 36 37 38 39 40 41 42 43 44 45 46 47 48 49 50
000
NZUS43 KILX 250110
HWRILX

Area Weather Roundup
National Weather Service Lincoln IL
800 PM CDT MON JUL 24 2017

NOTE:  "FAIR" indicates few or no clouds below 12,000 feet, with
       no sigificant weather and/or obstructions to visibility.


CITY           SKY/WX    TMP DP  RH WIND       PRES   REMARKS
Bloomington    CLEAR     72  64  76 NE10      30.05S
Champaign      CLEAR     74  62  66 NE8       30.04R
Danville       CLEAR     70  64  83 NE5       30.01S
Decatur        CLEAR     74  66  76 NE7       30.02R
Effingham      CLEAR     78  68  72 NE3       30.01R HX  80
Flora          CLEAR     82  67  61 NE7       29.99R HX  84
Galesburg      CLEAR     71  64  78 NE7       30.05S
Jacksonville   CLEAR     75  67  75 NE7       30.01S
Lacon          CLEAR     71  65  81 NE3       30.04R
Lawrenceville  CLEAR     79  69  71 N8        29.99R HX  81
Litchfield     CLEAR     77  68  72 NE8       30.00R
$$


CITY           SKY/WX    TMP DP  RH WIND       PRES   REMARKS
Lincoln        CLEAR     74  68  79 NE6       30.02S
Macomb         CLEAR     71  66  83 NE5       30.05S
Mattoon        CLEAR     76  69  79 NE7       30.01R
Mt Carmel AP   CLEAR     78  68  71 NE3       29.99R HX  80
Olney-Noble AP CLEAR     78  70  75 NE5       30.00R HX  80
Paris AP       CLEAR     73  66  78 N5        30.03R
Peoria         CLEAR     73  65  75 NE6       30.03S
Pontiac        CLEAR     70  67  88 NE5       30.06S
Rantoul        CLEAR     75  64  69 NE8       30.04R
Robinson       CLEAR     75  69  83 N5        30.01R
Springfield    MOCLDY    77  69  76 N5        30.02R
Taylorville    MOCLDY    76  68  76 NE6       30.01R
$$

...REGIONAL REPORTS...


CITY           SKY/WX    TMP DP  RH WIND       PRES   REMARKS
Chicago O`Hare MOCLDY    69  59  70 NE10      30.08R
Kankakee       CLEAR     67  60  76 NE7       30.07S
Moline         CLEAR     73  62  68 SE3       30.04S
Mount Sterling CLEAR     73  65  76 NE6       30.01S
Mount Vernon   CLEAR     80  70  71 NE6       29.98R HX  83
Pittsfield     CLEAR     77  68  74 NE6       30.02R
Quincy         CLEAR     78  66  66 E10       30.00S HX  80
Rockford       PTCLDY    73  58  59 E6        30.08S
$$


CITY           SKY/WX    TMP DP  RH WIND       PRES   REMARKS
Burlington     CLEAR     73  65  75 E7        30.03R
Cedar Rapids   CLEAR     71  65  81 E8        30.04R
Des Moines     PTCLDY    80  63  55 E8        29.99F HX  81
Kirksville     CLEAR     79  64  60 E3        30.01F HX  81
Ottumwa        CLEAR     78  65  63 E10       30.01R HX  80
St Louis       PTCLDY    86  64  47 N9        29.98R HX  87
$$


CITY           SKY/WX    TMP DP  RH WIND       PRES   REMARKS
Terre Haute    CLEAR     75  67  76 N3        30.02R
Evansville     CLEAR     80  68  66 NE7       29.97R HX  83
Indianapolis   PTCLDY    76  63  64 NE12      30.01R
Lafayette      CLEAR     71  62  73 N5        30.04R HAZE
Madison        PTCLDY    71  58  63 E6        30.08R
Milwaukee      PTCLDY    67  56  67 NE10      30.09S
$$






USA.gov is the U.S. government's official web portal to all federal, state and local government web resources and services.